User: anonymous   Login
Location: Unspecified
(0.0000°N, 0.0000°E)
Time: 03:56:33
(UTC+01:00)
Language:

Palapa 6 Rocket - Orbit

View from above orbital plane
View from above orbital plane
View from above satellite
View from above satellite

Ground track
Ground track

The orbit data is extracted from the following two-line orbital elements,

1 20571U 90034B   14329.55884905  .00004897  00000-0  70732-3 0  5798
2 20571 022.7506 358.5197 0515723 306.3379 190.8985 14.10098897259857
Epoch (UTC): 25 November 2014 13:24:44
Eccentricity: 0.0515723
inclination: 22.7506°
perigee height: 486 km
apogee height: 1232 km
right ascension of ascending node: 358.5197°
argument of perigee: 306.3379°
revolutions per day: 14.10098897
mean anomaly at epoch: 190.8985°
orbit number at epoch: 25985

The dashed part of the orbit path shows where the satellite is in the earth's shadow,  

DLR